Time,TemperatureF,DewpointF,PressureIn,WindDirection,WindDirectionDegrees,WindSpeedMPH,WindSpeedGustMPH,Humidity,HourlyPrecipIn,Conditions,Clouds,dailyrainin,SoftwareType,DateUTC
2013-02-21 00:01:00,25.4,11.0,29.97,West,260,4.0,8.0,54,0.00,,,0.00,weatherlink.com 1.10,2013-02-21 05:01:00,
2013-02-21 00:16:00,25.4,11.0,29.97,West,266,1.0,12.0,54,0.00,,,0.00,weatherlink.com 1.10,2013-02-21 05:16:00,
2013-02-21 00:31:00,25.2,11.0,29.98,WSW,238,3.0,9.0,55,0.00,,,0.00,weatherlink.com 1.10,2013-02-21 05:31:00,
2013-02-21 00:46:00,25.2,11.0,29.98,WNW,300,1.0,15.0,54,0.00,,,0.00,weatherlink.com 1.10,2013-02-21 05:46:00,
2013-02-21 01:01:00,25.2,11.0,29.97,West,259,10.0,11.0,55,0.00,,,0.00,weatherlink.com 1.10,2013-02-21 06:01:00,
2013-02-21 01:16:00,25.0,11.0,29.97,WSW,249,2.0,9.0,55,0.00,,,0.00,weatherlink.com 1.10,2013-02-21 06:16:00,
2013-02-21 01:31:00,24.8,11.0,29.97,SE,146,3.0,9.0,56,0.00,,,0.00,weatherlink.com 1.10,2013-02-21 06:31:00,
2013-02-21 01:46:00,24.6,11.0,29.98,WNW,290,5.0,9.0,56,0.00,,,0.00,weatherlink.com 1.10,2013-02-21 06:46:00,
2013-02-21 02:01:00,24.6,11.0,29.97,WNW,285,3.0,9.0,56,0.00,,,0.00,weatherlink.com 1.10,2013-02-21 07:01:00,
2013-02-21 02:16:00,24.5,11.0,29.97,SW,235,3.0,7.0,57,0.00,,,0.00,weatherlink.com 1.10,2013-02-21 07:16:00,
2013-02-21 02:32:00,24.5,11.0,29.97,WNW,293,6.0,13.0,57,0.00,,,0.00,weatherlink.com 1.10,2013-02-21 07:32:00,
2013-02-21 02:47:00,24.4,11.0,29.96,SSW,200,4.0,8.0,57,0.00,,,0.00,weatherlink.com 1.10,2013-02-21 07:47:00,
2013-02-21 03:02:00,24.3,11.0,29.97,WSW,249,1.0,10.0,58,0.00,,,0.00,weatherlink.com 1.10,2013-02-21 08:02:00,
2013-02-21 03:17:00,24.3,11.0,29.97,NE,50,5.0,11.0,58,0.00,,,0.00,weatherlink.com 1.10,2013-02-21 08:17:00,
2013-02-21 03:32:00,24.2,11.0,29.97,West,260,2.0,10.0,58,0.00,,,0.00,weatherlink.com 1.10,2013-02-21 08:32:00,
2013-02-21 03:47:00,24.2,11.0,29.97,WSW,240,5.0,14.0,58,0.00,,,0.00,weatherlink.com 1.10,2013-02-21 08:47:00,
2013-02-21 04:02:00,24.2,11.0,29.97,West,264,1.0,10.0,58,0.00,,,0.00,weatherlink.com 1.10,2013-02-21 09:02:00,
2013-02-21 04:17:00,24.2,12.0,29.97,WNW,291,2.0,10.0,59,0.00,,,0.00,weatherlink.com 1.10,2013-02-21 09:17:00,
2013-02-21 04:32:00,24.2,12.0,29.97,West,270,4.0,8.0,59,0.00,,,0.00,weatherlink.com 1.10,2013-02-21 09:32:00,
2013-02-21 04:47:00,24.4,12.0,29.97,NNW,338,4.0,10.0,60,0.00,,,0.00,weatherlink.com 1.10,2013-02-21 09:47:00,
2013-02-21 05:02:00,24.7,12.0,29.98,SSW,201,6.0,10.0,59,0.00,,,0.00,weatherlink.com 1.10,2013-02-21 10:02:00,
2013-02-21 05:17:00,25.1,12.0,29.98,West,278,2.0,9.0,59,0.00,,,0.00,weatherlink.com 1.10,2013-02-21 10:17:00,
2013-02-21 05:32:00,25.3,12.0,29.98,WNW,299,8.0,11.0,58,0.00,,,0.00,weatherlink.com 1.10,2013-02-21 10:32:00,
2013-02-21 05:47:00,25.3,12.0,29.98,West,264,1.0,9.0,58,0.00,,,0.00,weatherlink.com 1.10,2013-02-21 10:47:00,
2013-02-21 06:02:00,25.4,12.0,29.99,West,262,9.0,15.0,57,0.00,,,0.00,weatherlink.com 1.10,2013-02-21 11:02:00,
2013-02-21 06:17:00,25.4,12.0,29.99,SW,231,4.0,12.0,57,0.00,,,0.00,weatherlink.com 1.10,2013-02-21 11:17:00,
2013-02-21 06:32:00,25.3,11.0,29.99,WSW,257,6.0,13.0,56,0.00,,,0.00,weatherlink.com 1.10,2013-02-21 11:32:00,
2013-02-21 06:47:00,25.1,11.0,29.99,WNW,285,5.0,16.0,56,0.00,,,0.00,weatherlink.com 1.10,2013-02-21 11:47:00,
2013-02-21 07:02:00,24.9,11.0,30.00,North,356,4.0,10.0,56,0.00,,,0.00,weatherlink.com 1.10,2013-02-21 12:02:00,
2013-02-21 07:17:00,25.2,11.0,30.00,SSW,195,5.0,15.0,55,0.00,,,0.00,weatherlink.com 1.10,2013-02-21 12:17:00,
2013-02-21 07:32:00,25.5,11.0,30.00,WSW,240,4.0,14.0,54,0.00,,,0.00,weatherlink.com 1.10,2013-02-21 12:32:00,
2013-02-21 07:47:00,25.8,11.0,30.00,WNW,284,4.0,13.0,54,0.00,,,0.00,weatherlink.com 1.10,2013-02-21 12:47:00,
2013-02-21 08:02:00,26.7,12.0,30.00,West,259,4.0,15.0,53,0.00,,,0.00,weatherlink.com 1.10,2013-02-21 13:02:00,
2013-02-21 08:17:00,27.2,11.0,29.98,WSW,238,11.0,16.0,51,0.00,,,0.00,weatherlink.com 1.10,2013-02-21 13:17:00,
2013-02-21 08:32:00,27.5,12.0,29.99,West,266,2.0,17.0,52,0.00,,,0.00,weatherlink.com 1.10,2013-02-21 13:32:00,
2013-02-21 08:47:00,28.2,12.0,30.00,East,89,2.0,12.0,51,0.00,,,0.00,weatherlink.com 1.10,2013-02-21 13:47:00,
2013-02-21 09:02:00,28.7,12.0,30.00,WNW,284,3.0,17.0,50,0.00,,,0.00,weatherlink.com 1.10,2013-02-21 14:02:00,
2013-02-21 09:17:00,29.3,12.0,29.99,SW,232,7.0,11.0,49,0.00,,,0.00,weatherlink.com 1.10,2013-02-21 14:17:00,
2013-02-21 09:32:00,29.2,12.0,29.99,WSW,248,6.0,13.0,49,0.00,,,0.00,weatherlink.com 1.10,2013-02-21 14:32:00,
2013-02-21 09:47:00,29.5,12.0,29.99,ENE,60,3.0,13.0,49,0.00,,,0.00,weatherlink.com 1.10,2013-02-21 14:47:00,
2013-02-21 10:02:00,30.4,12.0,29.98,WSW,238,6.0,12.0,47,0.00,,,0.00,weatherlink.com 1.10,2013-02-21 15:02:00,
2013-02-21 10:17:00,30.4,12.0,29.98,WNW,292,6.0,14.0,47,0.00,,,0.00,weatherlink.com 1.10,2013-02-21 15:17:00,
2013-02-21 10:32:00,30.8,12.0,29.98,SW,225,6.0,18.0,46,0.00,,,0.00,weatherlink.com 1.10,2013-02-21 15:32:00,
2013-02-21 10:47:00,31.4,12.0,29.98,NW,307,2.0,17.0,45,0.00,,,0.00,weatherlink.com 1.10,2013-02-21 15:47:00,
2013-02-21 11:02:00,31.7,12.0,29.99,West,270,4.0,13.0,45,0.00,,,0.00,weatherlink.com 1.10,2013-02-21 16:02:00,
2013-02-21 11:18:00,32.1,13.0,30.00,NNW,329,2.0,11.0,45,0.00,,,0.00,weatherlink.com 1.10,2013-02-21 16:18:00,
2013-02-21 11:32:00,32.6,13.0,30.00,WNW,293,3.0,13.0,44,0.00,,,0.00,weatherlink.com 1.10,2013-02-21 16:32:00,
2013-02-21 11:47:00,33.7,14.0,29.99,SW,235,7.0,11.0,44,0.00,,,0.00,weatherlink.com 1.10,2013-02-21 16:47:00,
2013-02-21 12:02:00,33.7,14.0,29.98,WSW,248,7.0,17.0,44,0.00,,,0.00,weatherlink.com 1.10,2013-02-21 17:02:00,
2013-02-21 12:17:00,34.0,15.0,29.98,WNW,282,5.0,16.0,45,0.00,,,0.00,weatherlink.com 1.10,2013-02-21 17:17:00,
2013-02-21 12:32:00,33.7,14.0,29.98,NW,315,2.0,20.0,45,0.00,,,0.00,weatherlink.com 1.10,2013-02-21 17:32:00,
2013-02-21 12:47:00,34.4,14.0,29.97,West,268,4.0,12.0,44,0.00,,,0.00,weatherlink.com 1.10,2013-02-21 17:47:00,
2013-02-21 13:02:00,35.0,15.0,29.96,WNW,287,10.0,13.0,44,0.00,,,0.00,weatherlink.com 1.10,2013-02-21 18:02:00,
2013-02-21 13:17:00,34.6,14.0,29.97,SW,222,2.0,18.0,43,0.00,,,0.00,weatherlink.com 1.10,2013-02-21 18:17:00,
2013-02-21 13:32:00,34.8,14.0,29.97,WNW,296,3.0,15.0,43,0.00,,,0.00,weatherlink.com 1.10,2013-02-21 18:32:00,
2013-02-21 13:47:00,34.5,14.0,29.97,NNW,330,5.0,15.0,44,0.00,,,0.00,weatherlink.com 1.10,2013-02-21 18:47:00,
2013-02-21 14:02:00,35.0,15.0,29.97,East,96,3.0,13.0,44,0.00,,,0.00,weatherlink.com 1.10,2013-02-21 19:02:00,
2013-02-21 14:17:00,35.1,15.0,29.97,West,281,5.0,12.0,43,0.00,,,0.00,weatherlink.com 1.10,2013-02-21 19:17:00,
2013-02-21 14:32:00,35.1,14.0,29.98,West,269,13.0,14.0,42,0.00,,,0.00,weatherlink.com 1.10,2013-02-21 19:32:00,
2013-02-21 14:47:00,35.5,15.0,29.98,WSW,239,7.0,14.0,43,0.00,,,0.00,weatherlink.com 1.10,2013-02-21 19:47:00,
2013-02-21 15:03:00,35.9,15.0,29.98,West,269,10.0,20.0,42,0.00,,,0.00,weatherlink.com 1.10,2013-02-21 20:03:00,
2013-02-21 15:18:00,35.7,15.0,29.99,WNW,293,6.0,13.0,42,0.00,,,0.00,weatherlink.com 1.10,2013-02-21 20:18:00,
2013-02-21 15:33:00,35.3,14.0,29.99,WNW,302,6.0,14.0,42,0.00,,,0.00,weatherlink.com 1.10,2013-02-21 20:33:00,
2013-02-21 15:48:00,34.9,14.0,30.00,SSW,200,0.0,13.0,43,0.00,,,0.00,weatherlink.com 1.10,2013-02-21 20:48:00,
2013-02-21 16:03:00,34.7,14.0,30.01,South,174,4.0,19.0,43,0.00,,,0.00,weatherlink.com 1.10,2013-02-21 21:03:00,
2013-02-21 16:18:00,34.4,14.0,30.02,East,85,2.0,12.0,44,0.00,,,0.00,weatherlink.com 1.10,2013-02-21 21:18:00,
2013-02-21 16:33:00,34.1,15.0,30.03,West,276,11.0,15.0,45,0.00,,,0.00,weatherlink.com 1.10,2013-02-21 21:33:00,
2013-02-21 16:48:00,33.6,14.0,30.05,West,277,2.0,13.0,45,0.00,,,0.00,weatherlink.com 1.10,2013-02-21 21:48:00,
2013-02-21 17:03:00,32.9,14.0,30.05,WSW,242,2.0,15.0,46,0.00,,,0.00,weatherlink.com 1.10,2013-02-21 22:03:00,
2013-02-21 17:18:00,32.0,14.0,30.06,NNE,26,3.0,12.0,48,0.00,,,0.00,weatherlink.com 1.10,2013-02-21 22:18:00,
2013-02-21 17:33:00,31.1,14.0,30.07,North,353,6.0,16.0,50,0.00,,,0.00,weatherlink.com 1.10,2013-02-21 22:33:00,
2013-02-21 17:48:00,30.6,14.0,30.08,WNW,298,3.0,12.0,51,0.00,,,0.00,weatherlink.com 1.10,2013-02-21 22:48:00,
2013-02-21 18:03:00,30.2,14.0,30.09,WNW,293,2.0,15.0,52,0.00,,,0.00,weatherlink.com 1.10,2013-02-21 23:03:00,
2013-02-21 18:18:00,30.0,14.0,30.10,NW,316,2.0,14.0,52,0.00,,,0.00,weatherlink.com 1.10,2013-02-21 23:18:00,
2013-02-21 18:33:00,29.7,14.0,30.10,NNE,33,1.0,15.0,53,0.00,,,0.00,weatherlink.com 1.10,2013-02-21 23:33:00,
2013-02-21 18:48:00,29.2,14.0,30.11,WNW,298,6.0,10.0,54,0.00,,,0.00,weatherlink.com 1.10,2013-02-21 23:48:00,
2013-02-21 19:03:00,28.9,14.0,30.12,West,280,4.0,11.0,55,0.00,,,0.00,weatherlink.com 1.10,2013-02-22 00:03:00,
2013-02-21 19:18:00,28.6,15.0,30.14,NW,309,3.0,13.0,56,0.00,,,0.00,weatherlink.com 1.10,2013-02-22 00:18:00,
2013-02-21 19:33:00,28.3,15.0,30.16,NE,36,6.0,9.0,57,0.00,,,0.00,weatherlink.com 1.10,2013-02-22 00:33:00,
2013-02-21 19:48:00,28.0,15.0,30.18,WNW,294,4.0,9.0,58,0.00,,,0.00,weatherlink.com 1.10,2013-02-22 00:48:00,
2013-02-21 20:03:00,27.7,15.0,30.19,West,271,4.0,9.0,58,0.00,,,0.00,weatherlink.com 1.10,2013-02-22 01:03:00,
2013-02-21 20:18:00,27.5,14.0,30.21,NW,311,7.0,14.0,58,0.00,,,0.00,weatherlink.com 1.10,2013-02-22 01:18:00,
2013-02-21 20:34:00,27.4,15.0,30.21,WSW,250,12.0,12.0,59,0.00,,,0.00,weatherlink.com 1.10,2013-02-22 01:34:00,
2013-02-21 20:49:00,27.2,14.0,30.21,WNW,302,1.0,11.0,59,0.00,,,0.00,weatherlink.com 1.10,2013-02-22 01:49:00,
2013-02-21 21:04:00,27.1,14.0,30.22,West,264,5.0,10.0,59,0.00,,,0.00,weatherlink.com 1.10,2013-02-22 02:04:00,
2013-02-21 21:19:00,26.9,15.0,30.23,SW,218,3.0,10.0,60,0.00,,,0.00,weatherlink.com 1.10,2013-02-22 02:19:00,
2013-02-21 21:34:00,26.7,15.0,30.24,WNW,287,4.0,12.0,61,0.00,,,0.00,weatherlink.com 1.10,2013-02-22 02:34:00,
2013-02-21 22:04:00,26.2,15.0,30.25,NW,318,1.0,10.0,62,0.00,,,0.00,weatherlink.com 1.10,2013-02-22 03:04:00,
2013-02-21 22:19:00,26.0,15.0,30.24,West,263,1.0,7.0,63,0.00,,,0.00,weatherlink.com 1.10,2013-02-22 03:19:00,
2013-02-21 22:34:00,25.9,15.0,30.25,West,263,1.0,7.0,64,0.00,,,0.00,weatherlink.com 1.10,2013-02-22 03:34:00,
2013-02-21 22:49:00,25.8,15.0,30.25,West,264,2.0,6.0,65,0.00,,,0.00,weatherlink.com 1.10,2013-02-22 03:49:00,
2013-02-21 23:04:00,25.8,15.0,30.26,ENE,60,5.0,8.0,65,0.00,,,0.00,weatherlink.com 1.10,2013-02-22 04:04:00,
2013-02-21 23:19:00,25.8,16.0,30.26,WNW,290,0.0,7.0,66,0.00,,,0.00,weatherlink.com 1.10,2013-02-22 04:19:00,
2013-02-21 23:34:00,26.0,16.0,30.26,NNW,330,1.0,9.0,66,0.00,,,0.00,weatherlink.com 1.10,2013-02-22 04:34:00,
2013-02-21 23:49:00,26.3,16.0,30.26,SW,219,1.0,12.0,66,0.00,,,0.00,weatherlink.com 1.10,2013-02-22 04:49:00,